This is the latest recevied weather packets stored in our database for station/object ED5YAL-15. If no packets are shown the sender has not sent any weather packets the latest 10 day(s).
| Time | Temp. | Humidity | Pressure | Rain* | Wind** | Luminosity | Snow |
|---|---|---|---|---|---|---|---|
| 1777506388 | 15° C | 47% | 1018.3 hPa | - | - | - | - |
| 1777505487 | 14.44° C | 47% | 1018.3 hPa | - | - | - | - |
| 1777504586 | 15° C | 47% | 1018.2 hPa | - | - | - | - |
| 1777503686 | 15.56° C | 47% | 1018 hPa | - | - | - | - |
| 1777502785 | 15.56° C | 47% | 1017.9 hPa | - | - | - | - |
| 1777501884 | 15° C | 47% | 1018 hPa | - | - | - | - |
| 1777501164 | 15.56° C | 47% | 1018 hPa | - | - | - | - |
| 1777500983 | 15.56° C | 47% | 1018 hPa | - | - | - | - |
| 1777500082 | 15° C | 47% | 1017.8 hPa | - | - | - | - |
| 1777499181 | 15.56° C | 46% | 1017.8 hPa | - | - | - | - |
| 1777498281 | 15.56° C | 46% | 1017.7 hPa | - | - | - | - |
| 1777497413 | 16.11° C | 46% | 1017.7 hPa | - | - | - | - |
| 1777497380 | 16.11° C | 46% | 1017.7 hPa | - | - | - | - |
| 1777496479 | 16.11° C | 46% | 1017.6 hPa | - | - | - | - |
| 1777495616 | 16.11° C | 46% | 1017.4 hPa | - | - | - | - |
| 1777495616 | 16.11° C | 46% | 1017.4 hPa | - | - | - | - |
| 1777495578 | 16.11° C | 46% | 1017.4 hPa | - | - | - | - |
| 1777494682 | 16.11° C | 46% | 1017.4 hPa | - | - | - | - |
| 1777493777 | 18.33° C | 47% | 1017.2 hPa | - | - | - | - |
| 1777492895 | 16.11° C | 46% | 1017.2 hPa | - | - | - | - |
| 1777491994 | 16.11° C | 46% | 1017.1 hPa | - | - | - | - |
| 1777491093 | 16.11° C | 46% | 1016.9 hPa | - | - | - | - |
| 1777490192 | 16.11° C | 46% | 1016.8 hPa | - | - | - | - |
| 1777489291 | 16.11° C | 46% | 1016.5 hPa | - | - | - | - |
| 1777488391 | 16.67° C | 46% | 1016.2 hPa | - | - | - | - |
* Rain since midnight (hover to see other rain measurements)
** Current wind speed in m/s (hover to see current wind gust speed)